Date String (YYYY-MM-DD hh:mm:ss) UTC,Instrument flags,Ambient pressure (hPa),Sample flow (lpm),Bypass flow (lpm),Sample temperature (°C),Ambient temperature (°C),ASC tube jacket temperature (°C),LED temperature (°C),Box temperature (°C),Sample RH (%),Span deviation,Mass concentration (μg/m³),Mass concentration (μg/m³),Mass concentration (μg/m³)
DateTimeUTC,F1_M11,P_M11,Q1_M11,Q2_M11,T1_M11,T2_M11,T3_M11,T4_M11,T5_M11,U1_M11,ZSPAN_M11,X2_M11,X0_M11,X1_M11
2022-03-30 09:00:00,,0818.4,5.00,0.00,21.9,20.9,00.0,31.2,23.6,15.2,0000.0,0002.65,0003.09,0002.45
2022-03-30 09:01:00,,0818.5,5.00,0.00,21.9,20.9,00.0,31.2,23.6,15.2,0000.0,0002.64,0003.08,0002.44
2022-03-30 09:02:00,,0818.5,4.98,0.00,21.9,20.9,00.0,31.1,23.6,15.3,0000.0,0002.64,0003.09,0002.43
2022-03-30 09:03:00,,0818.5,5.00,0.00,21.9,20.9,00.0,31.1,23.6,15.3,0000.0,0002.63,0003.06,0002.44
2022-03-30 09:04:00,,0818.5,5.00,0.00,21.9,20.9,00.0,31.1,23.6,15.4,0000.0,0002.61,0003.00,0002.42
2022-03-30 09:05:00,,0818.5,5.00,0.00,21.9,21.0,00.0,31.1,23.6,15.4,0000.0,0002.65,0003.08,0002.44
2022-03-30 09:06:00,,0818.5,5.00,0.00,21.9,21.0,00.0,31.1,23.6,15.4,0000.0,0002.62,0003.03,0002.45
2022-03-30 09:07:00,,0818.4,5.00,0.00,21.9,20.8,00.0,31.1,23.5,15.5,0000.0,0002.65,0003.19,0002.46
2022-03-30 09:08:00,,0818.4,5.00,0.00,21.8,20.9,00.0,31.0,23.5,15.6,0000.0,0002.67,0003.25,0002.47
2022-03-30 09:09:00,,0818.4,5.00,0.00,21.8,20.8,00.0,31.0,23.5,15.6,0000.0,0002.66,0003.21,0002.48
2022-03-30 09:10:00,,0818.4,4.99,0.00,21.8,20.8,00.0,31.0,23.4,15.6,0000.0,0002.67,0003.24,0002.48
2022-03-30 09:11:00,,0818.5,4.99,0.00,21.8,20.9,00.0,31.0,23.4,15.5,0000.0,0002.65,0003.22,0002.46
2022-03-30 09:12:00,,0818.5,5.00,0.00,21.8,20.9,00.0,31.0,23.4,15.5,0000.0,0002.65,0003.21,0002.45
2022-03-30 09:13:00,,0818.4,5.01,0.00,21.8,20.9,00.0,31.0,23.4,15.5,0000.0,0002.69,0003.31,0002.45
2022-03-30 09:14:00,,0818.5,4.99,0.00,21.8,20.9,00.0,31.0,23.5,15.5,0000.0,0002.69,0003.29,0002.44
2022-03-30 09:15:00,,0818.4,5.00,0.00,21.8,21.0,00.0,30.9,23.5,15.5,0000.0,0002.69,0003.26,0002.46
2022-03-30 09:16:00,,0818.4,5.01,0.00,21.8,21.0,00.0,30.9,23.5,15.4,0000.0,0002.66,0004.59,0002.46
2022-03-30 09:17:00,,0818.5,4.99,0.00,21.7,21.0,00.0,30.9,23.4,15.4,0000.0,0002.65,0004.76,0002.46
2022-03-30 09:18:00,,0818.5,5.00,0.00,21.7,20.9,00.0,30.9,23.4,15.3,0000.0,0002.67,0004.67,0002.47
2022-03-30 09:19:00,,0818.5,5.01,0.00,21.7,20.9,00.0,30.9,23.4,15.2,0000.0,0002.69,0004.68,0002.49
2022-03-30 09:20:00,,0818.5,5.00,0.00,21.7,20.9,00.0,30.9,23.4,15.2,0000.0,0002.72,0004.71,0002.51
2022-03-30 09:21:00,,0818.5,5.00,0.00,21.7,21.0,00.0,30.9,23.4,15.2,0000.0,0002.74,0004.78,0002.52
2022-03-30 09:22:00,,0818.5,4.98,0.00,21.7,20.9,00.0,30.9,23.3,15.1,0000.0,0002.78,0004.92,0002.53
2022-03-30 09:23:00,,0818.6,5.01,0.00,21.7,21.0,00.0,30.9,23.3,15.1,0000.0,0002.80,0004.92,0002.55
2022-03-30 09:24:00,,0818.6,5.00,0.00,21.7,21.0,00.0,30.8,23.3,15.0,0000.0,0002.79,0004.88,0002.58
2022-03-30 09:25:00,,0818.7,5.00,0.00,21.6,21.0,00.0,30.8,23.3,15.0,0000.0,0002.82,0004.92,0002.61
2022-03-30 09:26:00,,0818.8,5.00,0.00,21.6,21.0,00.0,30.8,23.3,15.0,0000.0,0002.87,0005.02,0002.62
2022-03-30 09:27:00,,0818.8,5.01,0.00,21.6,21.0,00.0,30.8,23.3,14.9,0000.0,0002.90,0004.04,0002.64
2022-03-30 09:28:00,,0818.7,4.99,0.00,21.6,20.9,00.0,30.8,23.3,14.9,0000.0,0002.94,0003.61,0002.67
2022-03-30 09:29:00,,0818.7,5.01,0.00,21.6,20.9,00.0,30.8,23.3,15.0,0000.0,0002.94,0003.64,0002.68
2022-03-30 09:30:00,,0818.8,5.00,0.00,21.6,20.9,00.0,30.8,23.3,15.1,0000.0,0002.94,0004.35,0002.68
2022-03-30 09:31:00,,0818.8,5.01,0.00,21.6,20.8,00.0,30.8,23.2,15.1,0000.0,0002.99,0004.67,0002.70
2022-03-30 09:32:00,,0818.8,5.00,0.00,21.5,20.8,00.0,30.7,23.2,15.2,0000.0,0002.99,0004.61,0002.72
2022-03-30 09:33:00,,0818.7,4.99,0.00,21.5,20.8,00.0,30.7,23.2,15.1,0000.0,0003.00,0004.53,0002.75
2022-03-30 09:34:00,,0818.7,5.00,0.00,21.5,20.8,00.0,30.7,23.2,15.2,0000.0,0003.06,0004.69,0002.77
2022-03-30 09:35:00,,0818.7,5.00,0.00,21.5,20.8,00.0,30.7,23.2,15.3,0000.0,0003.12,0004.89,0002.78
2022-03-30 09:36:00,,0818.7,5.01,0.00,21.5,20.6,00.0,30.7,23.2,15.3,0000.0,0003.13,0004.89,0002.80
2022-03-30 09:37:00,,0818.7,5.00,0.00,21.5,20.5,00.0,30.7,23.2,15.3,0000.0,0003.14,0005.05,0002.82
2022-03-30 09:38:00,,0818.7,5.00,0.00,21.5,20.5,00.0,30.7,23.1,15.3,0000.0,0003.15,0005.34,0002.84
2022-03-30 09:39:00,,0818.7,5.01,0.00,21.4,20.6,00.0,30.6,23.1,15.2,0000.0,0003.17,0005.31,0002.86
2022-03-30 09:40:00,,0818.7,4.99,0.00,21.4,20.6,00.0,30.6,23.1,15.2,0000.0,0003.17,0005.27,0002.88
2022-03-30 09:41:00,,0818.7,5.01,0.00,21.4,20.5,00.0,30.6,23.1,15.3,0000.0,0003.18,0004.81,0002.88
2022-03-30 09:42:00,,0818.7,5.00,0.00,21.4,20.5,00.0,30.6,23.0,15.3,0000.0,0003.16,0004.34,0002.88
2022-03-30 09:43:00,,0818.8,4.98,0.00,21.4,20.5,00.0,30.6,23.0,15.2,0000.0,0003.17,0004.34,0002.89
2022-03-30 09:44:00,,0818.8,5.00,0.00,21.3,20.5,00.0,30.6,23.0,15.0,0000.0,0003.16,0004.31,0002.91
2022-03-30 09:45:00,,0818.7,5.01,0.00,21.3,20.5,00.0,30.5,23.0,15.0,0000.0,0003.17,0004.35,0002.92
2022-03-30 09:46:00,,0818.7,5.00,0.00,21.3,20.5,00.0,30.5,23.0,15.1,0000.0,0003.17,0004.31,0002.94
2022-03-30 09:47:00,,0818.6,5.00,0.00,21.3,20.6,00.0,30.5,23.0,15.2,0000.0,0003.18,0004.34,0002.95
2022-03-30 09:48:00,,0818.6,5.01,0.00,21.3,20.5,00.0,30.5,22.9,15.2,0000.0,0003.18,0004.25,0002.96
2022-03-30 09:49:00,,0818.6,4.99,0.00,21.3,20.4,00.0,30.5,22.9,15.3,0000.0,0003.18,0003.92,0002.96
2022-03-30 09:50:00,,0818.7,5.00,0.00,21.3,20.5,00.0,30.5,22.9,15.2,0000.0,0003.18,0003.95,0002.97
2022-03-30 09:51:00,,0818.8,5.01,0.00,21.3,20.5,00.0,30.5,22.9,15.1,0000.0,0003.19,0003.95,0002.96
2022-03-30 09:52:00,,0818.8,5.00,0.00,21.3,20.4,00.0,30.5,22.9,15.2,0000.0,0003.19,0003.93,0002.98
2022-03-30 09:53:00,,0818.7,5.00,0.00,21.3,20.3,00.0,30.4,22.9,15.2,0000.0,0003.20,0003.91,0003.00
2022-03-30 09:54:00,,0818.7,5.01,0.00,21.3,20.4,00.0,30.4,22.9,15.1,0000.0,0003.22,0003.98,0003.00
2022-03-30 09:55:00,,0818.8,4.99,0.00,21.3,20.3,00.0,30.4,22.9,15.2,0000.0,0003.24,0004.04,0003.01
2022-03-30 09:56:00,,0818.8,5.00,0.00,21.3,20.2,00.0,30.4,22.9,15.2,0000.0,0003.26,0004.11,0003.01
2022-03-30 09:57:00,,0818.8,5.00,0.00,21.2,20.2,00.0,30.4,22.9,15.4,0000.0,0003.24,0003.98,0003.00
2022-03-30 09:58:00,,0818.8,5.00,0.00,21.2,20.2,00.0,30.4,22.9,15.3,0000.0,0003.24,0004.18,0003.01
2022-03-30 09:59:00,,0818.8,5.00,0.00,21.2,20.2,00.0,30.4,23.0,15.2,0000.0,0003.24,0004.86,0003.02
